TimeCST,TemperatureF,Dew PointF,Humidity,Sea Level PressureIn,VisibilityMPH,Wind Direction,Wind SpeedMPH,Gust SpeedMPH,PrecipitationIn,Events,Conditions,WindDirDegrees,DateUTC
1:53 AM,48.9,45.0,86,30.26,10.0,SSW,3.5,-,N/A,,Clear,200,2013-01-23 07:53:00
2:53 AM,48.0,44.1,86,30.26,9.0,Calm,Calm,-,N/A,,Clear,0,2013-01-23 08:53:00
3:53 AM,46.9,43.0,86,30.25,9.0,Calm,Calm,-,N/A,,Clear,0,2013-01-23 09:53:00
4:53 AM,46.9,44.1,90,30.25,7.0,Calm,Calm,-,N/A,,Clear,0,2013-01-23 10:53:00
5:53 AM,45.0,42.1,90,30.26,7.0,Calm,Calm,-,N/A,,Clear,0,2013-01-23 11:53:00
6:53 AM,45.0,42.1,90,30.27,4.0,Calm,Calm,-,N/A,,Clear,0,2013-01-23 12:53:00
7:36 AM,45.0,43.0,93,30.30,1.8,Calm,Calm,-,N/A,,Scattered Clouds,0,2013-01-23 13:36:00
7:38 AM,45.0,43.0,93,30.30,0.5,Calm,Calm,-,N/A,Fog,Fog,0,2013-01-23 13:38:00
7:46 AM,45.0,43.0,93,30.30,0.2,Calm,Calm,-,N/A,Fog,Fog,0,2013-01-23 13:46:00
7:53 AM,44.1,43.0,96,30.30,0.2,Calm,Calm,-,N/A,Fog,Fog,0,2013-01-23 13:53:00
8:24 AM,48.0,46.0,93,30.31,1.0,Calm,Calm,-,N/A,,Mist,0,2013-01-23 14:24:00
8:53 AM,50.0,48.9,96,30.30,1.0,Calm,Calm,-,N/A,,Mostly Cloudy,0,2013-01-23 14:53:00
8:58 AM,50.0,48.9,96,30.32,1.5,Variable,3.5,-,N/A,,Mostly Cloudy,0,2013-01-23 14:58:00
9:09 AM,51.1,48.9,92,30.32,2.5,SW,3.5,-,N/A,,Mostly Cloudy,220,2013-01-23 15:09:00
9:29 AM,52.0,50.0,93,30.33,3.0,SSW,3.5,-,N/A,,Overcast,200,2013-01-23 15:29:00
9:53 AM,55.0,52.0,89,30.33,6.0,South,4.6,-,N/A,,Overcast,190,2013-01-23 15:53:00
10:20 AM,57.9,52.0,81,30.34,9.0,South,6.9,-,N/A,,Scattered Clouds,190,2013-01-23 16:20:00
10:53 AM,61.0,52.0,72,30.32,10.0,South,9.2,-,N/A,,Partly Cloudy,180,2013-01-23 16:53:00
11:53 AM,64.9,53.1,65,30.30,10.0,South,10.4,-,N/A,,Clear,190,2013-01-23 17:53:00
12:53 PM,70.0,53.1,55,30.25,10.0,South,13.8,19.6,N/A,,Clear,190,2013-01-23 18:53:00
1:53 PM,71.1,53.1,53,30.23,10.0,South,9.2,-,N/A,,Clear,170,2013-01-23 19:53:00
3:53 PM,72.0,54.0,53,30.20,10.0,South,10.4,-,N/A,,Clear,180,2013-01-23 21:53:00
4:53 PM,72.0,53.1,51,30.19,10.0,SSW,10.4,-,N/A,,Clear,200,2013-01-23 22:53:00
5:53 PM,69.1,54.0,58,30.20,10.0,South,5.8,-,N/A,,Clear,190,2013-01-23 23:53:00
6:53 PM,66.0,54.0,65,30.20,10.0,South,8.1,-,N/A,,Clear,190,2013-01-24 00:53:00
7:53 PM,63.0,53.1,70,30.22,10.0,SSW,4.6,-,N/A,,Clear,200,2013-01-24 01:53:00
8:53 PM,59.0,52.0,78,30.22,10.0,Calm,Calm,-,N/A,,Clear,0,2013-01-24 02:53:00
9:53 PM,57.9,52.0,81,30.22,10.0,Calm,Calm,-,N/A,,Clear,0,2013-01-24 03:53:00
10:53 PM,55.9,51.1,84,30.22,10.0,Calm,Calm,-,N/A,,Clear,0,2013-01-24 04:53:00
11:53 PM,55.0,51.1,86,30.21,9.0,Calm,Calm,-,N/A,,Clear,0,2013-01-24 05:53:00